Change the Weather History Date:

Wednesday, February 19, 2014

  Actual Average Record
Temperature  
Mean Temperature 37 °F -  
Max Temperature 53 °F 40 °F 64 °F (1981)
Min Temperature 21 °F 20 °F -7 °F (1978)
Degree Days  
Heating Degree Days 28    
Moisture  
Dew Point 26 °F    
Average Humidity 66    
Maximum Humidity 98    
Minimum Humidity 26    
Precipitation  
Precipitation 0.00 in - - ()
Sea Level Pressure  
Sea Level Pressure 29.81 in    
Wind  
Wind Speed 6 mph (South)    
Max Wind Speed 20 mph    
Max Gust Speed 24 mph    
Visibility 10 miles    
Events      
Averages and records for this station are not official NWS values.
T = Trace of Precipitation, MM = Missing Value Source: NWS Daily Summary

Daily Weather History Graph

Daily Weather History Graph

Search for Another Location

Airport or City:

Trip Planner

Search our weather history database for the weather conditions in past years. The results will help you decide how hot, cold, wet, or windy it might be!

Date:

Astronomy

Feb. 19, 2014 Rise Set
Actual Time 7:15 AM CST 6:04 PM CST
Civil Twilight 6:47 AM CST 6:33 PM CST
Nautical Twilight 6:15 AM CST 7:05 PM CST
Astronomical Twilight 5:43 AM CST 7:37 PM CST
Moon 11:03 PM CST (2/19) 9:18 AM CST (2/19)
Length of Visible Light 11h 45m
Length of Day
10h 49m
Waning Gibbous, 79% of the Moon is Illuminated
Feb 19
Waning Gibbous
Feb 22
Last Quarter
Mar 1
New
Mar 8
First Quarter
Mar 16
Full

Hourly Weather History & Observations

Time (CST) Temp. Windchill Dew Point Humidity Pressure Visibility Wind Dir Wind Speed Gust Speed Precip Events Conditions
12:15 AM 30.7 °F 24.9 °F 26.8 °F 85% 29.94 in 10.0 mi West 5.8 mph - N/A   Clear
12:35 AM 30.0 °F 24.1 °F 26.6 °F 87% 29.94 in 10.0 mi West 5.8 mph - N/A   Clear
12:55 AM 30.9 °F 26.2 °F 27.5 °F 87% 29.96 in 10.0 mi West 4.6 mph - N/A   Clear
1:15 AM 30.2 °F 26.7 °F 26.6 °F 86% 29.96 in 10.0 mi SW 3.5 mph - N/A   Clear
1:35 AM 30.7 °F 24.9 °F 26.4 °F 84% 29.95 in 10.0 mi West 5.8 mph - N/A   Clear
1:55 AM 28.4 °F 22.2 °F 24.6 °F 86% 29.94 in 10.0 mi West 5.8 mph - N/A   Clear
2:15 AM 27.5 °F - 24.3 °F 88% 29.95 in 10.0 mi Calm Calm - N/A   Clear
2:35 AM 26.8 °F 20.2 °F 23.2 °F 86% 29.95 in 10.0 mi WNW 5.8 mph - N/A   Clear
2:55 AM 24.6 °F 20.3 °F 22.1 °F 90% 29.96 in 10.0 mi West 3.5 mph - N/A   Clear
3:15 AM 24.4 °F 18.6 °F 21.9 °F 90% 29.94 in 10.0 mi West 4.6 mph - N/A   Clear
3:35 AM 23.9 °F 19.5 °F 21.7 °F 91% 29.93 in 10.0 mi West 3.5 mph - N/A   Clear
3:55 AM 22.1 °F 15.9 °F 20.3 °F 93% 29.93 in 10.0 mi WNW 4.6 mph - N/A   Clear
4:15 AM 22.8 °F 16.7 °F 21.2 °F 93% 29.92 in 10.0 mi WNW 4.6 mph - N/A   Clear
4:35 AM 22.1 °F - 20.5 °F 93% 29.92 in 10.0 mi Calm Calm - N/A   Clear
4:55 AM 23.2 °F - 21.4 °F 93% 29.92 in 10.0 mi Calm Calm - N/A   Clear
5:15 AM 22.1 °F - 20.3 °F 93% 29.92 in 10.0 mi Calm Calm - N/A   Clear
5:35 AM 21.4 °F - 20.1 °F 95% 29.92 in 10.0 mi Calm Calm - N/A   Clear
5:55 AM 23.9 °F - 22.8 °F 96% 29.92 in 10.0 mi Calm Calm - N/A   Clear
6:15 AM 22.3 °F - 21.7 °F 98% 29.92 in 10.0 mi Calm Calm - N/A   Clear
6:35 AM 21.9 °F 17.2 °F 20.7 °F 95% 29.93 in 10.0 mi West 3.5 mph - N/A   Clear
6:55 AM 22.1 °F - 20.8 °F 95% 29.93 in 10.0 mi Calm Calm - N/A   Clear
7:15 AM 22.5 °F - 21.4 °F 96% 29.93 in 10.0 mi Calm Calm - N/A   Clear
7:35 AM 21.6 °F - 20.3 °F 95% 29.93 in 10.0 mi Calm Calm - N/A   Clear
7:55 AM 22.3 °F - 20.7 °F 93% 29.92 in 10.0 mi Calm Calm - N/A   Clear
8:15 AM 25.7 °F - 23.0 °F 89% 29.93 in 10.0 mi Calm Calm - N/A   Clear
8:35 AM 27.9 °F - 25.3 °F 90% 29.93 in 10.0 mi Calm Calm - N/A   Clear
8:55 AM 31.6 °F - 27.9 °F 86% 29.92 in 10.0 mi Calm Calm - N/A   Clear
9:15 AM 34.9 °F - 29.1 °F 79% 29.92 in 10.0 mi Calm Calm - N/A   Clear
9:35 AM 38.7 °F 35.2 °F 28.4 °F 67% 29.92 in 10.0 mi SW 4.6 mph - N/A   Clear
9:55 AM 41.0 °F 38.0 °F 28.9 °F 62% 29.92 in 10.0 mi SSW 4.6 mph - N/A   Clear
10:15 AM 44.1 °F 40.1 °F 28.6 °F 55% 29.91 in 10.0 mi SSW 6.9 mph - N/A   Clear
10:35 AM 45.9 °F 41.7 °F 28.9 °F 52% 29.91 in 10.0 mi South 8.1 mph - N/A   Clear
10:55 AM 47.5 °F - 27.5 °F 46% 29.90 in 10.0 mi South 6.9 mph - N/A   Clear
11:15 AM 47.8 °F - 27.7 °F 46% 29.89 in 10.0 mi South 10.4 mph - N/A   Clear
11:35 AM 48.6 °F - 28.2 °F 45% 29.89 in 10.0 mi South 11.5 mph - N/A   Clear
11:55 AM 50.0 °F - 25.5 °F 39% 29.87 in 10.0 mi South 11.5 mph 17.3 mph N/A   Clear
12:15 PM 50.7 °F - 25.2 °F 37% 29.86 in 10.0 mi South 13.8 mph 18.4 mph N/A   Clear
12:35 PM 50.9 °F - 23.4 °F 34% 29.84 in 10.0 mi South 16.1 mph 20.7 mph N/A   Clear
12:55 PM 51.8 °F - 23.0 °F 33% 29.83 in 10.0 mi South 16.1 mph 19.6 mph N/A   Clear
1:15 PM 52.7 °F - 24.1 °F 33% 29.81 in 10.0 mi SSE 12.7 mph 17.3 mph N/A   Clear
1:35 PM 52.7 °F - 22.5 °F 31% 29.80 in 10.0 mi South 19.6 mph 23.0 mph N/A   Clear
1:55 PM 53.6 °F - 23.4 °F 31% 29.79 in 10.0 mi South 13.8 mph 21.9 mph N/A   Clear
2:15 PM 53.6 °F - 20.3 °F 27% 29.77 in 10.0 mi South 19.6 mph 24.2 mph N/A   Clear
2:35 PM 53.8 °F - 19.8 °F 26% 29.76 in 10.0 mi SSE 13.8 mph 21.9 mph N/A   Clear
2:55 PM 53.8 °F - 20.5 °F 27% 29.74 in 10.0 mi SSE 18.4 mph 24.2 mph N/A   Clear
3:15 PM 52.7 °F - 22.5 °F 31% 29.74 in 10.0 mi South 16.1 mph 23.0 mph N/A   Clear
3:35 PM 52.2 °F - 21.4 °F 30% 29.72 in 10.0 mi SSE 18.4 mph 24.2 mph N/A   Clear
3:55 PM 51.8 °F - 23.9 °F 34% 29.72 in 10.0 mi SSE 12.7 mph 19.6 mph N/A   Clear
4:15 PM 51.8 °F - 23.9 °F 34% 29.71 in 10.0 mi SSE 12.7 mph 23.0 mph N/A   Clear
4:35 PM 51.8 °F - 23.9 °F 34% 29.70 in 10.0 mi SSE 15.0 mph 21.9 mph N/A   Clear
4:55 PM 50.9 °F - 23.0 °F 34% 29.69 in 10.0 mi SSE 16.1 mph 23.0 mph N/A   Clear
5:15 PM 49.3 °F - 25.0 °F 39% 29.68 in 10.0 mi SSE 10.4 mph 17.3 mph N/A   Clear
5:35 PM 48.0 °F - 25.9 °F 42% 29.67 in 10.0 mi SSE 9.2 mph - N/A   Clear
5:55 PM 47.3 °F - 28.2 °F 48% 29.67 in 10.0 mi SSE 10.4 mph - N/A   Clear
6:15 PM 46.4 °F 41.1 °F 28.8 °F 50% 29.67 in 10.0 mi SE 11.5 mph - N/A   Clear
6:35 PM 45.9 °F 41.7 °F 29.3 °F 52% 29.66 in 10.0 mi ESE 8.1 mph - N/A   Clear
6:55 PM 44.8 °F 39.9 °F 30.2 °F 57% 29.65 in 10.0 mi SE 9.2 mph - N/A   Clear
7:15 PM 44.1 °F 38.1 °F 30.7 °F 59% 29.65 in 10.0 mi SE 11.5 mph - N/A   Clear
7:35 PM 43.5 °F 37.5 °F 31.1 °F 62% 29.65 in 10.0 mi SE 11.5 mph - N/A   Clear
7:55 PM 43.0 °F 36.8 °F 32.0 °F 65% 29.65 in 10.0 mi SE 11.5 mph - N/A   Clear
8:15 PM 42.3 °F 36.8 °F 32.0 °F 67% 29.65 in 10.0 mi SSE 9.2 mph - N/A   Clear
8:35 PM 41.9 °F 36.9 °F 32.2 °F 68% 29.64 in 10.0 mi SSE 8.1 mph - N/A   Clear
8:55 PM 41.9 °F 36.9 °F 32.4 °F 69% 29.64 in 10.0 mi SE 8.1 mph - N/A   Clear
9:15 PM 41.5 °F 36.4 °F 32.5 °F 70% 29.63 in 10.0 mi SE 8.1 mph - N/A   Clear
9:35 PM 40.8 °F 36.2 °F 32.4 °F 72% 29.63 in 10.0 mi SE 6.9 mph - N/A   Clear
9:55 PM 40.3 °F 36.3 °F 32.0 °F 72% 29.62 in 10.0 mi SE 5.8 mph - N/A   Clear
10:35 PM 40.1 °F 34.7 °F 32.0 °F 73% 29.61 in 10.0 mi SE 8.1 mph - N/A   Mostly Cloudy
10:55 PM 39.0 °F 36.8 °F 31.8 °F 75% 29.60 in 10.0 mi SSE 3.5 mph - N/A   Scattered Clouds
11:15 PM 39.2 °F 37.0 °F 31.8 °F 75% 29.60 in 10.0 mi SE 3.5 mph - N/A   Clear
11:35 PM 37.4 °F 32.1 °F 31.1 °F 78% 29.58 in 10.0 mi SE 6.9 mph - N/A   Clear
11:55 PM 36.9 °F 34.3 °F 31.1 °F 80% 29.57 in 10.0 mi ESE 3.5 mph - N/A   Clear